When you browse on this site, cookies collect data to enhance your experience and personalize the content and advertising you see.
Visit our Privacy Policy to learn more. By continuing to use the site, you agree to this use of cookies and data.
  • In Hungary
  • List of Countries
  • For 7 days
  • Water Temperature
  • Weather Map
  • News
  • Weather Widgets
  • user-avatar
    Login

    Hourly Weather Ampezzo

    Today, 6 December, Friday

    Time Temperature Precipitation Wind Pressure Humidity
    00:00 0°C° 0 mm 1 mps 685 mmHg 69%
    01:00 0°C° 0 mm 1 mps 684 mmHg 69%
    02:00 0°C° 0 mm 1 mps 684 mmHg 70%
    03:00 0°C° 0 mm 1 mps 684 mmHg 70%
    04:00 0°C° 0 mm 1 mps 683 mmHg 71%
    05:00 0°C° 0 mm 1 mps 684 mmHg 71%
    06:00 0°C° 0 mm 1 mps 684 mmHg 72%
    07:00 0°C° 0 mm 1 mps 684 mmHg 72%
    08:00 +1°C° 0 mm 1 mps 684 mmHg 71%
    09:00 +1°C° 0 mm 0 mps 684 mmHg 70%
    10:00 +2°C° 0 mm 0 mps 684 mmHg 69%
    11:00 +3°C° 0 mm 0 mps 684 mmHg 70%
    12:00 +4°C° 0 mm 0 mps 684 mmHg 71%
    13:00 +5°C° 0 mm 1 mps 684 mmHg 72%
    14:00 +3°C° 0 mm 0 mps 683 mmHg 77%
    15:00 +2°C° 0 mm 0 mps 682 mmHg 82%
    16:00 +1°C° 0 mm 0 mps 682 mmHg 87%
    17:00 +1°C° 0 mm 0 mps 682 mmHg 86%
    18:00 +1°C° 0 mm 1 mps 682 mmHg 84%
    19:00 +1°C° 0 mm 1 mps 682 mmHg 83%
    20:00 +1°C° 0 mm 1 mps 682 mmHg 82%
    21:00 0°C° 0 mm 1 mps 682 mmHg 80%
    22:00 0°C° 0 mm 1 mps 681 mmHg 78%
    23:00 0°C° 0 mm 1 mps 681 mmHg 77%

    Tomorrow, 7 December, Saturday

    Time Temperature Precipitation Wind Pressure Humidity
    00:00 0°C° 0 mm 1 mps 681 mmHg 76%
    01:00 0°C° 0 mm 1 mps 681 mmHg 74%
    02:00 0°C° 0 mm 1 mps 681 mmHg 73%
    03:00 0°C° 0 mm 1 mps 680 mmHg 72%
    04:00 0°C° 0 mm 1 mps 680 mmHg 71%
    05:00 +1°C° 0 mm 1 mps 680 mmHg 70%
    06:00 +1°C° 0 mm 1 mps 680 mmHg 69%
    07:00 +1°C° 0 mm 1 mps 681 mmHg 68%
    08:00 +2°C° 0 mm 1 mps 681 mmHg 66%
    09:00 +3°C° 0 mm 1 mps 681 mmHg 65%
    10:00 +4°C° 0 mm 1 mps 682 mmHg 63%
    11:00 +4°C° 0 mm 0 mps 681 mmHg 65%
    12:00 +5°C° 0 mm 0 mps 681 mmHg 67%
    13:00 +5°C° 0 mm 0 mps 681 mmHg 69%
    14:00 +4°C° 0 mm 0 mps 681 mmHg 74%
    15:00 +3°C° 0 mm 0 mps 681 mmHg 80%
    16:00 +2°C° 0 mm 0 mps 681 mmHg 85%
    17:00 +2°C° 0 mm 1 mps 681 mmHg 84%
    18:00 +2°C° 0 mm 1 mps 681 mmHg 83%
    19:00 -1°C° 0 mm 2 mps 682 mmHg 82%
    20:00 -1°C° 0 mm 2 mps 682 mmHg 81%
    21:00 -1°C° 0 mm 2 mps 682 mmHg 79%
    22:00 -1°C° 0 mm 2 mps 682 mmHg 78%
    23:00 -1°C° 0 mm 2 mps 682 mmHg 78%

    Day after tomorrow, 8 December, Sunday

    Time Temperature Precipitation Wind Pressure Humidity
    00:00 -1°C° 0 mm 2 mps 682 mmHg 77%
    01:00 -1°C° 0 mm 2 mps 682 mmHg 76%
    02:00 -1°C° 0 mm 2 mps 682 mmHg 76%
    03:00 +1°C° 0 mm 1 mps 682 mmHg 75%
    04:00 +1°C° 0 mm 1 mps 681 mmHg 75%
    05:00 +1°C° 0 mm 1 mps 681 mmHg 74%
    06:00 +1°C° 0 mm 1 mps 681 mmHg 73%
    07:00 +1°C° 0 mm 1 mps 681 mmHg 72%
    08:00 +2°C° 0 mm 1 mps 682 mmHg 70%
    09:00 +3°C° 0 mm 1 mps 682 mmHg 68%
    10:00 +3°C° 0 mm 0 mps 682 mmHg 66%
    11:00 +4°C° 0 mm 0 mps 682 mmHg 67%
    12:00 +5°C° 0 mm 1 mps 681 mmHg 68%
    13:00 +6°C° 0 mm 1 mps 681 mmHg 68%
    14:00 +5°C° 0 mm 1 mps 680 mmHg 75%
    15:00 +2°C° 0 mm 0 mps 680 mmHg 82%
    16:00 +1°C° 0 mm 0 mps 679 mmHg 88%
    17:00 +1°C° 0 mm 0 mps 679 mmHg 88%
    18:00 0°C° 0 mm 0 mps 679 mmHg 89%
    19:00 0°C° 0 mm 0 mps 679 mmHg 89%
    20:00 0°C° 0 mm 0 mps 678 mmHg 88%
    21:00 0°C° 0 mm 0 mps 678 mmHg 87%
    22:00 0°C° 0 mm 0 mps 678 mmHg 86%
    23:00 0°C° 0 mm 0 mps 678 mmHg 86%

    9 December, Monday

    Time Temperature Precipitation Wind Pressure Humidity
    00:00 0°C° 0 mm 0 mps 677 mmHg 87%
    01:00 0°C° 0 mm 0 mps 677 mmHg 87%
    02:00 0°C° 0 mm 0 mps 676 mmHg 86%
    03:00 0°C° 0 mm 0 mps 675 mmHg 86%
    04:00 0°C° 0 mm 0 mps 675 mmHg 85%
    05:00 0°C° 0 mm 0 mps 675 mmHg 85%
    06:00 0°C° 0 mm 0 mps 674 mmHg 85%
    07:00 0°C° 0 mm 0 mps 674 mmHg 86%
    08:00 +2°C° 0.2 mm 1 mps 674 mmHg 85%
    09:00 +2°C° 0.2 mm 1 mps 674 mmHg 85%
    10:00 +3°C° 0.2 mm 1 mps 674 mmHg 85%
    11:00 +3°C° 0.2 mm 1 mps 673 mmHg 84%
    12:00 +4°C° 0.2 mm 1 mps 673 mmHg 83%
    13:00 +5°C° 0.2 mm 1 mps 672 mmHg 82%
    14:00 +4°C° 0.1 mm 1 mps 672 mmHg 85%
    15:00 +2°C° 0.1 mm 0 mps 672 mmHg 88%
    16:00 +1°C° 0.1 mm 0 mps 671 mmHg 91%
    17:00 +1°C° 0 mm 0 mps 672 mmHg 90%
    18:00 +1°C° 0 mm 1 mps 672 mmHg 90%
    19:00 +1°C° 0 mm 1 mps 672 mmHg 89%
    20:00 +1°C° 0.1 mm 1 mps 673 mmHg 88%
    21:00 0°C° 0.1 mm 1 mps 673 mmHg 86%
    22:00 0°C° 0.1 mm 1 mps 673 mmHg 84%
    23:00 0°C° 0 mm 1 mps 674 mmHg 83%

    10 December, Tuesday

    Time Temperature Precipitation Wind Pressure Humidity
    00:00 -2°C° 0 mm 2 mps 674 mmHg 81%
    01:00 -2°C° 0 mm 2 mps 674 mmHg 80%
    02:00 -2°C° 0.1 mm 2 mps 674 mmHg 80%
    03:00 -2°C° 0.1 mm 2 mps 675 mmHg 80%
    04:00 -2°C° 0.1 mm 2 mps 675 mmHg 80%
    05:00 -2°C° 0 mm 2 mps 676 mmHg 79%
    06:00 -2°C° 0 mm 2 mps 677 mmHg 78%
    07:00 -3°C° 0 mm 2 mps 677 mmHg 77%
    08:00 -2°C° 0 mm 2 mps 678 mmHg 72%
    09:00 -1°C° 0 mm 3 mps 679 mmHg 67%
    10:00 0°C° 0 mm 3 mps 680 mmHg 62%
    11:00 0°C° 0 mm 3 mps 680 mmHg 58%
    12:00 +1°C° 0 mm 3 mps 681 mmHg 54%
    13:00 +1°C° 0 mm 3 mps 681 mmHg 49%
    14:00 0°C° 0 mm 3 mps 681 mmHg 54%
    15:00 -1°C° 0 mm 2 mps 681 mmHg 59%
    16:00 -2°C° 0 mm 2 mps 682 mmHg 64%
    17:00 -3°C° 0 mm 2 mps 682 mmHg 66%
    18:00 -4°C° 0 mm 2 mps 682 mmHg 68%
    19:00 -6°C° 0 mm 3 mps 682 mmHg 69%
    20:00 -5°C° 0 mm 2 mps 682 mmHg 66%
    21:00 -5°C° 0 mm 2 mps 682 mmHg 62%
    22:00 -5°C° 0 mm 2 mps 683 mmHg 59%
    23:00 -5°C° 0 mm 2 mps 682 mmHg 56%

    11 December, Wednesday

    Time Temperature Precipitation Wind Pressure Humidity
    00:00 -5°C° 0 mm 2 mps 682 mmHg 52%
    01:00 -5°C° 0 mm 2 mps 682 mmHg 49%
    02:00 -5°C° 0 mm 2 mps 681 mmHg 47%
    03:00 -2°C° 0 mm 1 mps 681 mmHg 46%
    04:00 -2°C° 0 mm 1 mps 681 mmHg 45%
    05:00 -2°C° 0 mm 1 mps 680 mmHg 45%
    06:00 -2°C° 0 mm 1 mps 680 mmHg 46%
    07:00 -1°C° 0 mm 1 mps 680 mmHg 46%
    08:00 -1°C° 0 mm 1 mps 680 mmHg 46%
    09:00 -1°C° 0 mm 0 mps 680 mmHg 46%
    10:00 0°C° 0 mm 0 mps 680 mmHg 46%
    11:00 +1°C° 0 mm 0 mps 680 mmHg 46%
    12:00 +2°C° 0 mm 1 mps 679 mmHg 47%
    13:00 +3°C° 0 mm 1 mps 678 mmHg 47%
    14:00 +2°C° 0 mm 1 mps 678 mmHg 53%
    15:00 0°C° 0 mm 0 mps 678 mmHg 59%
    16:00 -1°C° 0 mm 0 mps 677 mmHg 65%
    17:00 -1°C° 0 mm 0 mps 677 mmHg 65%
    18:00 -1°C° 0 mm 0 mps 677 mmHg 65%
    19:00 -1°C° 0 mm 0 mps 677 mmHg 65%
    20:00 -2°C° 0 mm 0 mps 677 mmHg 66%
    21:00 -3°C° 0 mm 0 mps 677 mmHg 67%
    22:00 -3°C° 0 mm 0 mps 677 mmHg 68%
    23:00 -2°C° 0 mm 1 mps 676 mmHg 68%
    Show more